Idaho Cnty AP, Grangeville, I, ID

6:54 PM PDT on April 30, 2017 (GMT -0700)
Idaho Cnty AP, Grangeville, I

Weather History for KGIC - March, 2014

Change the Weather History Date:

Thursday, March 13, 2014

  Actual Average (KP69) Record (KP69)
Temperature  
Mean Temperature 41 °F -  
Max Temperature 52 °F 50 °F 66 °F (2011)
Min Temperature 30 °F 31 °F 23 °F (2009)
Degree Days  
Heating Degree Days 24    
Moisture  
Dew Point 29 °F    
Average Humidity 66    
Maximum Humidity 85    
Minimum Humidity 39    
Precipitation  
Precipitation 0.00 in - - ()
Sea Level Pressure  
Sea Level Pressure 30.08 in    
Wind  
Wind Speed 4 mph (East)    
Max Wind Speed 10 mph    
Max Gust Speed 18 mph    
Visibility 10 miles    
Events      
Averages and records for this station are not official NWS values.
T = Trace of Precipitation, MM = Missing Value Source: NWS Daily Summary

Daily Weather History Graph

Daily Weather History Graph

Search for Another Location

Airport or City:

Trip Planner

Search our weather history database for the weather conditions in past years. The results will help you decide how hot, cold, wet, or windy it might be!

Date:

Astronomy

Mar. 13, 2014 Rise Set
Actual Time 7:00 AM PDT 6:47 PM PDT
Civil Twilight 6:31 AM PDT 7:17 PM PDT
Nautical Twilight 5:56 AM PDT 7:52 PM PDT
Astronomical Twilight 5:21 AM PDT 8:27 PM PDT
Moon 4:11 PM PDT (3/13) 5:17 AM PDT (3/13)
Length of Visible Light 12h 46m
Length of Day
11h 47m
Waxing Gibbous, 92% of the Moon is Illuminated
Mar 13
Waxing Gibbous
Mar 16
Full
Mar 23
Last Quarter
Mar 30
New
Apr 7
First Quarter

Hourly Weather History & Observations

Time (PDT) Temp. Windchill Dew Point Humidity Pressure Visibility Wind Dir Wind Speed Gust Speed Precip Events Conditions
12:15 AM 36.9 °F 32.2 °F 27.9 °F 70% 30.13 in 10.0 mi SE 5.8 mph 9.2 mph N/A   Clear
12:35 AM 35.8 °F 30.9 °F 28.6 °F 75% 30.12 in 10.0 mi East 5.8 mph 18.4 mph N/A   Clear
12:55 AM 37.2 °F 33.6 °F 28.0 °F 69% 30.13 in 10.0 mi SE 4.6 mph - N/A   Clear
1:15 AM 37.6 °F 33.1 °F 27.9 °F 68% 30.13 in 10.0 mi ENE 5.8 mph - N/A   Clear
1:35 AM 36.5 °F - 27.9 °F 71% 30.13 in 10.0 mi Calm Calm - N/A   Clear
1:55 AM 35.4 °F - 27.9 °F 74% 30.11 in 10.0 mi Calm Calm - N/A   Clear
2:15 AM 34.9 °F 28.3 °F 27.7 °F 75% 30.11 in 10.0 mi NE 8.1 mph - N/A   Clear
2:35 AM 34.5 °F - 27.9 °F 77% 30.11 in 10.0 mi Calm Calm - N/A   Clear
2:55 AM 34.3 °F 31.4 °F 28.0 °F 78% 30.11 in 10.0 mi East 3.5 mph - N/A   Clear
3:15 AM 33.8 °F - 28.2 °F 80% 30.10 in 10.0 mi North - - N/A   Clear
3:35 AM 33.3 °F 30.2 °F 28.2 °F 82% 30.09 in 10.0 mi SE 3.5 mph - N/A   Clear
3:55 AM 32.0 °F - 27.5 °F 83% 30.09 in 10.0 mi Calm Calm - N/A   Clear
4:15 AM 32.4 °F - 27.9 °F 83% 30.09 in 10.0 mi Calm Calm - N/A   Clear
4:35 AM 32.5 °F 29.3 °F 27.5 °F 82% 30.09 in 10.0 mi NE 3.5 mph - N/A   Clear
4:55 AM 32.9 °F - 27.3 °F 80% 30.09 in 10.0 mi Calm Calm - N/A   Clear
5:15 AM 32.0 °F 27.5 °F 26.8 °F 81% 30.09 in 10.0 mi ESE 4.6 mph - N/A   Clear
5:35 AM 31.1 °F - 26.4 °F 83% 30.09 in 10.0 mi Calm Calm - N/A   Clear
5:55 AM 32.2 °F 27.7 °F 26.2 °F 79% 30.09 in 10.0 mi East 4.6 mph - N/A   Clear
6:15 AM 32.7 °F 29.6 °F 26.2 °F 77% 30.10 in 10.0 mi ESE 3.5 mph - N/A   Clear
6:35 AM 31.5 °F 25.8 °F 25.7 °F 79% 30.10 in 10.0 mi ENE 5.8 mph - N/A   Clear
6:55 AM 30.9 °F 24.3 °F 26.2 °F 83% 30.10 in 10.0 mi East 6.9 mph - N/A   Clear
7:15 AM 30.2 °F 25.4 °F 25.9 °F 84% 30.10 in 10.0 mi ESE 4.6 mph - N/A   Clear
7:35 AM 30.2 °F - 25.9 °F 84% 30.10 in 10.0 mi Calm Calm - N/A   Clear
7:55 AM 30.2 °F - 26.2 °F 85% 30.11 in 10.0 mi Calm Calm - N/A   Clear
8:15 AM 31.8 °F - 27.5 °F 84% 30.11 in 10.0 mi Calm Calm - N/A   Clear
8:35 AM 33.1 °F - 27.9 °F 81% 30.11 in 10.0 mi Calm Calm - N/A   Clear
8:55 AM 34.7 °F - 27.5 °F 75% 30.13 in 10.0 mi Calm Calm - N/A   Clear
9:15 AM 36.3 °F - 28.8 °F 74% 30.13 in 10.0 mi Calm Calm - N/A   Clear
9:30 AM 37.9 °F - 30.0 °F 73% 30.13 in 10.0 mi Calm Calm - N/A   Clear
9:55 AM 40.8 °F 38.8 °F 30.6 °F 67% 30.11 in 10.0 mi SE 3.5 mph - N/A   Clear
10:15 AM 42.4 °F 39.6 °F 30.2 °F 62% 30.11 in 10.0 mi ESE 4.6 mph - N/A   Clear
10:35 AM 44.1 °F - 30.0 °F 58% 30.11 in 10.0 mi Calm Calm - N/A   Clear
10:55 AM 45.5 °F - 30.2 °F 55% 30.11 in 10.0 mi Calm Calm - N/A   Clear
11:15 AM 46.9 °F - 31.3 °F 55% 30.11 in 10.0 mi NNE 3.5 mph - N/A   Clear
11:35 AM 48.2 °F - 33.3 °F 56% 30.10 in 10.0 mi WSW 4.6 mph - N/A   Clear
11:55 AM 50.4 °F - 30.4 °F 46% 30.10 in 10.0 mi WNW 8.1 mph - N/A   Clear
12:15 PM 51.1 °F - 28.2 °F 41% 30.09 in 10.0 mi West 8.1 mph - N/A   Clear
12:35 PM 51.6 °F - 27.5 °F 39% 30.09 in 10.0 mi WNW 5.8 mph - N/A   Clear
12:55 PM 52.0 °F - 27.5 °F 39% 30.09 in 10.0 mi WNW 4.6 mph - N/A   Clear
1:15 PM 52.0 °F - 27.3 °F 39% 30.09 in 10.0 mi WNW 3.5 mph - N/A   Clear
1:35 PM 51.8 °F - 28.0 °F 40% 30.09 in 10.0 mi West 3.5 mph - N/A   Clear
1:55 PM 52.3 °F - 28.2 °F 39% 30.08 in 10.0 mi WNW 8.1 mph - N/A   Clear
2:15 PM 51.6 °F - 27.5 °F 39% 30.08 in 10.0 mi WNW 8.1 mph - N/A   Clear
2:35 PM 52.2 °F - 27.7 °F 39% 30.08 in 10.0 mi West 8.1 mph - N/A   Clear
2:55 PM 51.6 °F - 32.0 °F 47% 30.08 in 10.0 mi North 10.4 mph - N/A   Clear
3:15 PM 51.6 °F - 33.3 °F 50% 30.08 in 10.0 mi NNE 5.8 mph - N/A   Clear
3:35 PM 51.8 °F - 33.1 °F 49% 30.08 in 10.0 mi NE 5.8 mph - N/A   Clear
3:55 PM 51.3 °F - 31.8 °F 47% 30.08 in 10.0 mi NNE 4.6 mph - N/A   Clear
4:15 PM 50.9 °F - 31.8 °F 48% 30.08 in 10.0 mi NNE 6.9 mph - N/A   Clear
4:35 PM 51.1 °F - 32.2 °F 48% 30.08 in 10.0 mi NNE 4.6 mph - N/A   Clear
4:55 PM 51.6 °F - 32.4 °F 48% 30.08 in 10.0 mi East 6.9 mph - N/A   Clear
5:15 PM 51.1 °F - 32.4 °F 49% 30.08 in 10.0 mi NE 3.5 mph - N/A   Clear
5:35 PM 51.1 °F - 32.2 °F 48% 30.07 in 10.0 mi NE 4.6 mph - N/A   Clear
5:55 PM 50.9 °F - 32.7 °F 50% 30.06 in 10.0 mi East 5.8 mph - N/A   Clear
6:15 PM 50.0 °F - 32.9 °F 52% 30.05 in 10.0 mi East 6.9 mph - N/A   Clear
6:35 PM 48.0 °F - 34.5 °F 60% 30.04 in 10.0 mi East 6.9 mph - N/A   Clear
6:55 PM 45.5 °F 41.3 °F 33.8 °F 64% 30.04 in 10.0 mi ESE 8.1 mph - N/A   Clear
7:15 PM 44.4 °F 40.5 °F 32.4 °F 63% 30.04 in 10.0 mi ESE 6.9 mph - N/A   Clear
7:35 PM 43.7 °F 39.7 °F 32.2 °F 64% 30.04 in 10.0 mi ESE 6.9 mph - N/A   Clear
7:55 PM 42.8 °F 39.3 °F 32.2 °F 66% 30.05 in 10.0 mi SSE 5.8 mph - N/A   Clear
8:15 PM 40.5 °F 34.6 °F 32.0 °F 72% 30.04 in 7.0 mi SE 9.2 mph - N/A   Clear
8:35 PM 40.1 °F 33.6 °F 31.8 °F 72% 30.04 in 10.0 mi SSE 10.4 mph - N/A   Clear
8:55 PM 39.9 °F 33.4 °F 31.3 °F 71% 30.04 in 10.0 mi SE 10.4 mph - N/A   Clear
9:15 PM 37.8 °F - 30.7 °F 76% 30.04 in 10.0 mi Calm Calm - N/A   Clear
9:35 PM 36.5 °F - 30.2 °F 78% 30.04 in 7.0 mi Calm Calm - N/A   Clear
9:55 PM 35.6 °F - 29.8 °F 80% 30.04 in 10.0 mi Calm Calm - N/A   Clear
10:15 PM 34.9 °F - 29.7 °F 81% 30.04 in 10.0 mi Calm Calm - N/A   Clear
10:35 PM 34.9 °F 32.0 °F 29.5 °F 81% 30.04 in 10.0 mi SW 3.5 mph - N/A   Clear
10:55 PM 35.8 °F 30.9 °F 29.7 °F 78% 30.03 in 10.0 mi South 5.8 mph - N/A   Clear
11:15 PM 35.4 °F 32.6 °F 29.5 °F 79% 30.04 in 10.0 mi SSW 3.5 mph - N/A   Clear
11:35 PM 35.2 °F 28.8 °F 29.3 °F 79% 30.04 in 10.0 mi SW 8.1 mph - N/A   Clear
11:55 PM 37.2 °F - 29.7 °F 74% 30.04 in 10.0 mi Calm Calm - N/A   Clear